Location: Croissy-Beaubourg
(48.8283°N, 2.6696°E)
Time: 02:00:45
(UTC+00:00)

USA 215 - Pass Details

Date: 30 May 2022
Orbit: 1099 x 1108 km, 123.0° (Epoch: 10 June)

Event Time Altitude Azimuth Distance (km) Brightness Sun altitude
Rises 00:53:10 0° 58° (ENE) 3,924 6.9 -17.9°
Reaches altitude 10° 00:55:40 10° 55° (NE) 2,966 6.3 -17.8°
Maximum altitude 01:02:07 64° 336° (NNW) 1,211 3.6 -17.5°
Drops below altitude 10° 01:08:35 10° 257° (WSW) 2,965 5.2 -17.1°
Enters shadow 01:10:12 - 255° (WSW) 3,583 5.6 -17.0°
